Location: Ajisawe
(8.4333°N, 4.3833°E)
Time: 08:20:47
(UTC+00:00)

SR - Visible Passes

Search period start: 19 April 2021 00:00
Search period end: 29 April 2021 00:00
Orbit: 573 x 882 km, 66.7° (Epoch: 18 April)

Date Brightness Start Highest point End Pass type
(mag) Time Alt. Az. Time Alt. Az. Time Alt. Az.
20 Apr ? 04:45:16 10° SE 04:48:14 16° ESE 04:51:20 10° ENE visible
22 Apr ? 04:45:50 10° S 04:50:28 36° ESE 04:55:28 10° NE visible
23 Apr ? 03:58:15 10° SE 04:00:56 14° ESE 04:03:42 10° ENE visible
24 Apr ? 04:47:40 10° SSW 04:52:47 86° ESE 04:58:21 10° NNE visible
25 Apr ? 03:58:35 10° S 04:03:09 33° ESE 04:08:04 10° NE visible
26 Apr ? 03:11:19 10° SE 03:13:38 13° ESE 03:16:00 10° E visible
26 Apr ? 04:50:22 10° SW 04:55:13 41° WNW 05:00:28 10° N visible
27 Apr ? 04:02:24 25° SSW 04:05:27 79° ESE 04:11:03 10° NNE visible
28 Apr ? 03:14:54 29° SE 03:15:50 31° ESE 03:20:39 10° NE visible
28 Apr ? 04:54:21 11° WSW 04:57:47 19° WNW 05:01:37 10° NNW visible
